Location: ??????
(41.3164°N, 22.6615°E)
Time: 00:33:58
(UTC+00:00)

Oscar 19 - Pass Details

Date: 07 July 2022
Orbit: 773 x 790 km, 98.8° (Epoch: 16 August)

Event Time Altitude Azimuth Distance (km) Brightness Sun altitude
Rises 00:32:55 0° 37° (NE) 3,257 15.4 -20.4°
Reaches altitude 10° 00:37:06 10° 70° (ENE) 2,323 13.8 -20.0°
Maximum altitude 00:38:43 11° 89° (E) 2,222 13.4 -19.9°
Drops below altitude 10° 00:40:21 10° 108° (ESE) 2,319 13.2 -19.7°
Sets 00:44:29 0° 141° (SE) 3,241 13.7 -19.3°
